• In Uzbekistan
  • List of Countries
  • For 7 days
  • Water Temperature
  • Satellite Maps
  • Weather Map
  • Weather Widgets
  • user-avatar
    Login

    Hourly Weather Trojca

    Today, 26 April, Thursday

    Time Temperature Precipitation Wind Pressure Humidity
    00:00 +14°C° 0.1 mm 4 mps 727 mmHg 82%
    01:00 +13°C° 0.1 mm 3 mps 727 mmHg 86%
    02:00 +13°C° 0.1 mm 2 mps 728 mmHg 90%
    03:00 +13°C° 0 mm 2 mps 728 mmHg 91%
    04:00 +12°C° 0 mm 2 mps 728 mmHg 93%
    05:00 +10°C° 0 mm 2 mps 728 mmHg 94%
    06:00 +12°C° 0 mm 2 mps 729 mmHg 88%
    07:00 +13°C° 0 mm 2 mps 729 mmHg 82%
    08:00 +14°C° 0 mm 2 mps 729 mmHg 76%
    09:00 +15°C° 0.1 mm 2 mps 729 mmHg 72%
    10:00 +15°C° 0.1 mm 2 mps 729 mmHg 68%
    11:00 +16°C° 0.1 mm 1 mps 729 mmHg 64%
    12:00 +16°C° 0.4 mm 1 mps 729 mmHg 69%
    13:00 +15°C° 0.4 mm 1 mps 729 mmHg 73%
    14:00 +14°C° 0.4 mm 1 mps 729 mmHg 78%
    15:00 +14°C° 0.3 mm 1 mps 729 mmHg 80%
    16:00 +14°C° 0.3 mm 1 mps 729 mmHg 83%
    17:00 +14°C° 0.3 mm 1 mps 729 mmHg 86%
    18:00 +13°C° 0.1 mm 1 mps 729 mmHg 87%
    19:00 +13°C° 0.1 mm 1 mps 729 mmHg 88%
    20:00 +12°C° 0.1 mm 1 mps 729 mmHg 90%
    21:00 +10°C° 0 mm 2 mps 730 mmHg 89%
    22:00 +10°C° 0 mm 2 mps 730 mmHg 88%
    23:00 +9°C° 0 mm 3 mps 730 mmHg 87%

    Tomorrow, 27 April, Friday

    Time Temperature Precipitation Wind Pressure Humidity
    00:00 +8°C° 0 mm 3 mps 731 mmHg 88%
    01:00 +8°C° 0 mm 3 mps 731 mmHg 89%
    02:00 +7°C° 0 mm 2 mps 731 mmHg 90%
    03:00 +6°C° 0 mm 2 mps 732 mmHg 91%
    04:00 +6°C° 0 mm 2 mps 732 mmHg 91%
    05:00 +5°C° 0 mm 2 mps 732 mmHg 92%
    06:00 +6°C° 0 mm 2 mps 732 mmHg 88%
    07:00 +7°C° 0 mm 2 mps 733 mmHg 83%
    08:00 +9°C° 0 mm 2 mps 733 mmHg 78%
    09:00 +10°C° 0 mm 2 mps 733 mmHg 69%
    10:00 +13°C° 0 mm 2 mps 733 mmHg 60%
    11:00 +15°C° 0 mm 2 mps 734 mmHg 52%
    12:00 +16°C° 0 mm 2 mps 733 mmHg 48%
    13:00 +16°C° 0 mm 2 mps 733 mmHg 45%
    14:00 +17°C° 0 mm 2 mps 733 mmHg 41%
    15:00 +17°C° 0 mm 2 mps 733 mmHg 42%
    16:00 +18°C° 0 mm 1 mps 732 mmHg 42%
    17:00 +18°C° 0 mm 1 mps 732 mmHg 43%
    18:00 +15°C° 0 mm 1 mps 732 mmHg 50%
    19:00 +13°C° 0 mm 2 mps 732 mmHg 57%
    20:00 +10°C° 0 mm 2 mps 732 mmHg 64%
    21:00 +10°C° 0 mm 2 mps 732 mmHg 67%
    22:00 +9°C° 0 mm 2 mps 732 mmHg 70%
    23:00 +8°C° 0 mm 2 mps 732 mmHg 73%

    Day after tomorrow, 28 April, Saturday

    Time Temperature Precipitation Wind Pressure Humidity
    00:00 +8°C° 0 mm 2 mps 732 mmHg 73%
    01:00 +8°C° 0 mm 2 mps 732 mmHg 73%
    02:00 +7°C° 0 mm 2 mps 732 mmHg 74%
    03:00 +7°C° 0 mm 2 mps 732 mmHg 73%
    04:00 +7°C° 0 mm 2 mps 732 mmHg 71%
    05:00 +7°C° 0 mm 2 mps 732 mmHg 70%
    06:00 +9°C° 0 mm 2 mps 732 mmHg 66%
    07:00 +12°C° 0 mm 2 mps 732 mmHg 62%
    08:00 +14°C° 0 mm 2 mps 732 mmHg 58%
    09:00 +16°C° 0 mm 3 mps 732 mmHg 54%
    10:00 +18°C° 0 mm 3 mps 732 mmHg 50%
    11:00 +20°C° 0 mm 3 mps 732 mmHg 45%
    12:00 +21°C° 0 mm 4 mps 732 mmHg 45%
    13:00 +22°C° 0 mm 4 mps 732 mmHg 44%
    14:00 +23°C° 0 mm 4 mps 731 mmHg 43%
    15:00 +23°C° 0 mm 4 mps 731 mmHg 46%
    16:00 +24°C° 0 mm 3 mps 731 mmHg 50%
    17:00 +22°C° 0 mm 3 mps 731 mmHg 53%
    18:00 +20°C° 0 mm 3 mps 731 mmHg 60%
    19:00 +19°C° 0 mm 2 mps 731 mmHg 67%
    20:00 +17°C° 0 mm 2 mps 731 mmHg 74%
    21:00 +16°C° 0 mm 2 mps 731 mmHg 78%
    22:00 +16°C° 0 mm 2 mps 731 mmHg 81%
    23:00 +15°C° 0 mm 2 mps 731 mmHg 84%

    29 April, Sunday

    Time Temperature Precipitation Wind Pressure Humidity
    00:00 +15°C° 0 mm 2 mps 731 mmHg 86%
    01:00 +15°C° 0 mm 2 mps 731 mmHg 88%
    02:00 +15°C° 0 mm 2 mps 731 mmHg 90%
    03:00 +15°C° 0.1 mm 2 mps 731 mmHg 90%
    04:00 +15°C° 0.1 mm 2 mps 731 mmHg 90%
    05:00 +15°C° 0.1 mm 2 mps 731 mmHg 90%
    06:00 +16°C° 0.1 mm 2 mps 731 mmHg 86%
    07:00 +17°C° 0.1 mm 2 mps 731 mmHg 82%
    08:00 +19°C° 0.1 mm 3 mps 731 mmHg 77%
    09:00 +21°C° 0 mm 3 mps 731 mmHg 69%
    10:00 +22°C° 0 mm 3 mps 732 mmHg 62%
    11:00 +25°C° 0 mm 3 mps 732 mmHg 54%
    12:00 +26°C° 0 mm 3 mps 731 mmHg 51%
    13:00 +27°C° 0 mm 3 mps 731 mmHg 48%
    14:00 +28°C° 0 mm 3 mps 730 mmHg 45%
    15:00 +27°C° 0 mm 3 mps 730 mmHg 47%
    16:00 +27°C° 0 mm 3 mps 730 mmHg 49%
    17:00 +27°C° 0 mm 3 mps 729 mmHg 51%
    18:00 +25°C° 0.1 mm 3 mps 729 mmHg 60%
    19:00 +21°C° 0.1 mm 3 mps 729 mmHg 68%
    20:00 +19°C° 0.1 mm 2 mps 729 mmHg 77%
    21:00 +18°C° 0 mm 2 mps 729 mmHg 78%
    22:00 +17°C° 0 mm 2 mps 729 mmHg 79%
    23:00 +16°C° 0 mm 2 mps 728 mmHg 80%

    30 April, Monday

    Time Temperature Precipitation Wind Pressure Humidity
    00:00 +16°C° 0 mm 2 mps 728 mmHg 79%
    01:00 +16°C° 0 mm 2 mps 728 mmHg 78%
    02:00 +15°C° 0 mm 2 mps 728 mmHg 77%
    03:00 +15°C° 0 mm 2 mps 728 mmHg 77%
    04:00 +15°C° 0 mm 2 mps 728 mmHg 77%
    05:00 +14°C° 0 mm 3 mps 728 mmHg 77%
    06:00 +16°C° 0 mm 3 mps 728 mmHg 72%
    07:00 +18°C° 0 mm 4 mps 728 mmHg 66%
    08:00 +19°C° 0 mm 4 mps 728 mmHg 61%
    09:00 +21°C° 0 mm 4 mps 728 mmHg 56%
    10:00 +22°C° 0 mm 5 mps 728 mmHg 51%
    11:00 +25°C° 0 mm 5 mps 728 mmHg 45%
    12:00 +25°C° 0 mm 5 mps 728 mmHg 44%
    13:00 +26°C° 0 mm 5 mps 728 mmHg 43%
    14:00 +27°C° 0 mm 5 mps 728 mmHg 41%
    15:00 +26°C° 0 mm 4 mps 727 mmHg 46%
    16:00 +25°C° 0 mm 4 mps 727 mmHg 50%
    17:00 +25°C° 0 mm 4 mps 727 mmHg 54%
    18:00 +22°C° 0 mm 3 mps 727 mmHg 60%
    19:00 +21°C° 0 mm 3 mps 727 mmHg 66%
    20:00 +19°C° 0 mm 3 mps 727 mmHg 72%
    21:00 +18°C° 0 mm 2 mps 728 mmHg 76%
    22:00 +17°C° 0 mm 2 mps 728 mmHg 79%
    23:00 +17°C° 0 mm 2 mps 728 mmHg 83%

    1 May, Tuesday

    Time Temperature Precipitation Wind Pressure Humidity
    00:00 +16°C° 0 mm 2 mps 729 mmHg 85%
    01:00 +16°C° 0 mm 2 mps 729 mmHg 88%
    02:00 +15°C° 0 mm 2 mps 730 mmHg 90%
    03:00 +14°C° 0.1 mm 3 mps 730 mmHg 91%
    04:00 +14°C° 0.1 mm 3 mps 730 mmHg 92%
    05:00 +13°C° 0.1 mm 3 mps 731 mmHg 93%
    06:00 +13°C° 0.1 mm 3 mps 731 mmHg 91%
    07:00 +14°C° 0.1 mm 3 mps 731 mmHg 89%
    08:00 +15°C° 0.1 mm 2 mps 732 mmHg 87%
    09:00 +16°C° 0 mm 2 mps 732 mmHg 82%
    10:00 +17°C° 0 mm 2 mps 732 mmHg 77%
    11:00 +18°C° 0 mm 2 mps 732 mmHg 72%
    12:00 +19°C° 0 mm 2 mps 732 mmHg 70%
    13:00 +19°C° 0 mm 2 mps 732 mmHg 67%
    14:00 +20°C° 0 mm 2 mps 731 mmHg 64%
    15:00 +20°C° 0 mm 2 mps 731 mmHg 66%
    16:00 +20°C° 0 mm 3 mps 731 mmHg 67%
    17:00 +20°C° 0 mm 3 mps 731 mmHg 68%
    18:00 +19°C° 0 mm 2 mps 731 mmHg 76%
    19:00 +17°C° 0 mm 2 mps 731 mmHg 83%
    20:00 +16°C° 0 mm 2 mps 730 mmHg 90%
    21:00 +15°C° 0 mm 2 mps 730 mmHg 92%
    22:00 +15°C° 0 mm 2 mps 730 mmHg 93%
    23:00 +14°C° 0 mm 2 mps 730 mmHg 95%
    Show more